カタログに戻る

STARLINK-4514

運用中通信VLEO
NORAD 53551·PAYLOAD·🇺🇸 United States

打ち上げ Aug 19, 2022 から Cape Canaveral Space Force Station

Loading…

次のパス (今後24時間)

TLE

最新Source: CelesTrak SupGP

元期: Sep 14, 2026, 21:06 UTC

1 53551C 22101AA  26257.87965278  .00030681  00000+0  90658-3 0  2574
2 53551  53.1568 283.9754 0001122  93.4089 200.6356 15.34371318    15

AllMySatでSTARLINK-4514をリアルタイム追跡

Download on the App Store